[[{"header":{"parameterUnit":"m.s-1","parameterCategory":1,"la1":30.2991,"la2":30.254,"lo1":-89.0895,"lo2":-89.0444,"dy":0.0017,"dx":0.0017,"nx":28,"ny":28,"refTime":"2024-04-29T03:00:00:Z","depth":0,"parameterNumber":2,"parameterNumberName":"U-component_of_WINDS"},"data":[0,0,0,0,0,0,0,0,0,0,0,0,0,0,0,0,0,0,0,0,0,0,0,0,0,0,0,0,0,0,0,0,0,0,0,0,0,0,0,0,0,0,0,0,0,0,0,0,0,0,0,0,0,0,0,0,0,0,3.0197,3.0198,0,3.0304,3.0305,3.0306,3.0323,3.0322,3.0321,3.032,3.0432,3.0436,3.0439,0,0,0,0,0,0,0,0,0,0,0,0,0,3.0012,3.0015,3.0197,3.0198,3.02,3.0303,3.0305,3.0306,3.0323,3.0322,3.0321,3.032,3.0431,3.0435,3.044,0,0,0,0,0,0,0,0,0,0,0,0,0,3.0103,3.0016,3.0197,3.0221,3.0224,3.0303,3.0305,3.0307,3.0323,3.0322,3.0321,3.0319,3.0429,3.0435,3.044,3.0504,0,0,3.0458,3.046,0,0,0,0,0,0,0,0,3.0098,3.011,3.0216,3.0219,3.0223,3.0298,3.0281,3.0373,3.0324,3.0286,3.032,3.0318,3.0389,3.0398,3.0421,3.0509,3.0514,3.0458,3.0462,3.0464,3.0466,0,0,0,0,0,0,0,3.0091,3.0105,3.0239,3.0217,3.0222,3.0227,3.0238,3.0298,3.0344,3.0289,3.029,3.0303,3.039,3.0415,3.0424,3.0516,3.0458,3.0463,3.0467,3.0469,3.0664,3.0666,0,0,0,0,0,0,3.008,3.01,3.0236,3.0242,3.0155,3.0232,3.0244,3.0276,3.0343,3.0352,3.0304,3.0303,3.0406,3.0417,3.0428,3.0508,3.0464,3.047,3.0473,3.0663,3.0665,3.0667,0,0,0,0,0,0,3.0076,3.0092,3.0232,3.0172,3.019,3.0236,3.0271,3.0278,3.0303,3.0354,3.0363,3.032,3.0405,3.0419,3.0485,3.0512,3.0472,3.0478,3.0661,3.0663,3.0666,3.0668,0,0,0,0,0,0,3.0071,3.0091,3.0114,3.0172,3.0193,3.0286,3.0273,3.0282,3.0313,3.0313,3.0372,3.0381,3.0405,3.0477,3.0491,3.0519,3.0482,3.0658,3.0662,3.0665,3.0666,3.067,3.0674,0,0,0,0,0,3.0064,3.0111,3.0116,3.0132,3.0223,3.0288,3.03,3.0326,3.0315,3.034,3.0373,3.0379,3.0507,3.0483,3.05,3.053,3.0657,3.0661,3.0665,3.0664,3.067,3.0674,0,0,0,0,0,0,3.0056,3.0119,3.0125,3.0191,3.0234,3.029,3.0322,3.0331,3.0378,3.0377,3.0408,3.0422,3.0486,3.0515,3.0487,3.0596,3.0581,3.0588,3.0575,3.0581,3.0585,3.0577,3.0487,0,0,0,0,0,3.0062,3.0108,3.0161,3.0215,3.0236,3.0275,3.0304,3.0321,3.0367,3.0385,3.0423,3.0468,3.0519,3.0552,3.0601,3.067,3.0684,3.07,3.0704,3.0707,3.0713,3.0753,3.0761,3.0679,3.0679,3.0679,0,0,3.0074,3.0114,3.0142,3.0214,3.0249,3.0297,3.029,3.0341,3.0378,3.0393,3.0458,3.0487,3.054,3.0608,3.064,3.0634,3.0739,3.0712,3.0714,3.0718,3.0758,3.0766,3.0773,3.0682,3.0681,3.0681,0,0,3.0122,3.0156,3.0205,3.0241,3.0294,3.0321,3.0332,3.0388,3.0408,3.0473,3.0486,3.0531,3.0617,3.0654,3.0685,3.0749,3.0756,3.0764,3.0786,3.0825,3.0832,3.0837,3.0861,3.0869,3.077,3.077,3.077,0,3.0131,3.0203,3.023,3.028,3.0313,3.0329,3.038,3.0413,3.048,3.0502,3.0494,3.0604,3.064,3.0718,3.0734,3.0758,3.0773,3.0757,3.0828,3.0834,3.084,3.0863,3.0872,3.077,3.077,3.077,3.077,0,3.0212,3.0262,3.0295,3.0359,3.0395,3.0445,3.0482,3.0515,3.0529,3.0557,3.0624,3.0669,3.0728,3.0748,3.0763,3.0829,3.0823,3.0822,3.0807,3.0848,3.087,3.0879,3.0771,3.0771,3.0771,3.0771,0,0,3.0255,3.0334,3.0346,3.0376,3.0437,3.0477,3.0529,3.0586,3.0615,3.0661,3.0707,3.078,3.0779,3.0813,3.0833,3.0867,3.0916,3.0861,3.0863,3.087,3.0993,3.0994,3.1003,3.0922,3.0923,3.0925,3.0989,0,3.031,3.0402,3.0429,3.0508,3.0555,3.0572,3.0618,3.0661,3.0689,3.0735,3.0766,3.0817,3.0812,3.0833,3.0868,3.0902,3.0941,3.0898,3.0965,3.0967,3.0951,3.1015,3.1016,3.1074,3.0997,3.0999,3.1,0,3.0386,3.0433,3.0516,3.0572,3.0593,3.0634,3.069,3.0732,3.0782,3.08,3.084,3.0856,3.0913,3.0896,3.0975,3.0946,3.0975,3.0996,3.0999,3.1006,3.0986,3.1024,3.1093,3.1101,3.1014,3.1013,3.1012,0,3.041,3.0495,3.0556,3.0581,3.0648,3.0676,3.0705,3.0754,3.0787,3.0836,3.0859,3.0914,3.0944,3.0988,3.102,3.1004,3.1097,3.1082,3.1114,3.1114,3.1133,3.1131,3.1207,3.1152,3.1151,3.1151,3.1151,0,3.0469,3.0519,3.0568,3.0605,3.0663,3.0694,3.075,3.0781,3.0824,3.0869,3.0888,3.093,3.0969,3.1017,3.1042,3.1105,3.1118,3.1136,3.1142,3.1134,3.1132,3.1153,3.115,3.1154,3.1153,3.1153,3.1152,0,3.0505,3.054,3.0607,3.0665,3.0681,3.0721,3.0772,3.081,3.0839,3.0895,3.091,3.0956,3.1014,3.105,3.1123,3.114,3.1209,3.1214,3.1191,3.1194,3.1225,3.1222,3.1317,3.1332,3.1267,3.1267,3.1268,0,3.054,3.0579,3.0641,3.0672,3.0702,3.0752,3.0786,3.0819,3.0854,3.0915,3.0946,3.1004,3.1053,3.1143,3.1184,3.1241,3.1247,3.1277,3.1256,3.1247,3.1248,3.1245,3.125,3.128,3.1281,3.1281,3.1282,0,3.0598,3.0614,3.0662,3.0717,3.0757,3.0802,3.0847,3.0871,3.0913,3.0951,3.101,3.1047,3.1122,3.118,3.124,3.1272,3.1284,3.1288,3.1299,3.1291,3.1276,3.1285,3.1201,3.1286,3.1285,3.1285,3.1285,3.1284,3.0635,3.0671,3.0721,3.0775,3.0812,3.0854,3.0893,3.0927,3.0976,3.1039,3.1056,3.1117,3.1168,3.125,3.1283,3.1333,3.1329,3.1344,3.1348,3.1351,3.1352,3.1269,3.1344,3.1344,3.1344,3.1344,3.1344,0,3.0695,3.0728,3.0777,3.084,3.0882,3.089,3.094,3.0975,3.1029,3.1075,3.1122,3.119,3.1247,3.1293,3.1352,3.1383,3.139,3.1397,3.1395,3.1403,3.1352,3.1337,3.1391,3.1391,3.1391,3.1391,3.1391,3.1391,3.0731,3.0793,3.0814,3.0896,3.0929,3.0989,3.1017,3.1056,3.1094,3.1168,3.1215,3.1245,3.1291,3.1354,3.1407,3.1419,3.144,3.1447,3.146,3.1411,3.1406,3.1401,3.1387,3.1451,3.1451,3.1507,3.1507,3.1508]},{"header":{"parameterUnit":"m.s-1","parameterCategory":1,"la1":30.2991,"la2":30.254,"lo1":-89.0895,"lo2":-89.0444,"dy":0.0017,"dx":0.0017,"nx":28,"ny":28,"refTime":"2024-04-29T03:00:00:Z","depth":0,"parameterNumber":3,"parameterNumberName":"V-component_of_WINDS"},"data":[0,0,0,0,0,0,0,0,0,0,0,0,0,0,0,0,0,0,0,0,0,0,0,0,0,0,0,0,0,0,0,0,0,0,0,0,0,0,0,0,0,0,0,0,0,0,0,0,0,0,0,0,0,0,0,0,0,0,0.1087,0.1087,0,0.1105,0.1105,0.1105,0.1124,0.1125,0.1125,0.1125,0.1142,0.1142,0.1142,0,0,0,0,0,0,0,0,0,0,0,0,0,0.1068,0.1069,0.1087,0.1087,0.1088,0.1105,0.1105,0.1105,0.1124,0.1125,0.1125,0.1125,0.1142,0.1142,0.1142,0,0,0,0,0,0,0,0,0,0,0,0,0,0.108,0.1069,0.1087,0.1099,0.1101,0.1105,0.1105,0.1105,0.1124,0.1125,0.1125,0.1125,0.1142,0.1142,0.1142,0.1136,0,0,0.1143,0.1143,0,0,0,0,0,0,0,0,0.1079,0.1081,0.1097,0.1098,0.11,0.1113,0.1104,0.1115,0.1124,0.1115,0.1125,0.1126,0.1132,0.1133,0.1135,0.1136,0.1137,0.1143,0.1143,0.1144,0.1144,0,0,0,0,0,0,0,0.1079,0.108,0.1094,0.1098,0.1099,0.1103,0.1105,0.1107,0.1121,0.1116,0.1117,0.1119,0.1133,0.1135,0.1136,0.1137,0.1143,0.1144,0.1144,0.1144,0.1131,0.1131,0,0,0,0,0,0,0.1076,0.1079,0.1094,0.1095,0.1091,0.1103,0.1105,0.1108,0.1121,0.1123,0.1119,0.112,0.1134,0.1135,0.1136,0.1128,0.1144,0.1144,0.1144,0.1132,0.1131,0.1131,0,0,0,0,0,0,0.1076,0.1077,0.1093,0.1087,0.109,0.1103,0.1106,0.1108,0.1111,0.1123,0.1126,0.1119,0.1135,0.1136,0.1135,0.1129,0.1144,0.1144,0.1132,0.1131,0.1131,0.1111,0,0,0,0,0,0,0.1075,0.1077,0.1075,0.1087,0.109,0.1092,0.1105,0.1108,0.1111,0.1113,0.1124,0.1126,0.1135,0.1135,0.1135,0.1129,0.1144,0.1133,0.1132,0.1131,0.1113,0.111,0.1108,0,0,0,0,0,0.1074,0.107,0.1075,0.1077,0.1088,0.1092,0.1093,0.1104,0.1111,0.1108,0.1116,0.1126,0.1129,0.1134,0.1135,0.1129,0.1133,0.1132,0.1131,0.1114,0.111,0.1108,0,0,0,0,0,0,0.1057,0.1071,0.1078,0.1077,0.1083,0.1095,0.1093,0.1101,0.1105,0.1106,0.1119,0.1122,0.1119,0.1124,0.113,0.1122,0.1133,0.1132,0.1119,0.1116,0.1114,0.1112,0.1145,0,0,0,0,0,0.1053,0.1055,0.1067,0.1065,0.1068,0.108,0.1082,0.1089,0.1096,0.1099,0.1106,0.1112,0.1114,0.1115,0.1118,0.1113,0.1115,0.1109,0.1107,0.1105,0.1104,0.1099,0.1096,0.1127,0.1127,0.1127,0,0,0.1045,0.1053,0.1054,0.1062,0.1068,0.1068,0.1082,0.1083,0.1083,0.1099,0.1098,0.1103,0.111,0.1107,0.1106,0.1111,0.1095,0.1103,0.1102,0.1102,0.1098,0.1095,0.1092,0.1126,0.1126,0.1126,0,0,0.103,0.1037,0.1035,0.104,0.1048,0.1055,0.1055,0.1065,0.1069,0.1069,0.108,0.108,0.1084,0.1088,0.1091,0.1075,0.1083,0.1075,0.1062,0.1058,0.1055,0.1053,0.1046,0.1044,0.1074,0.1074,0.1074,0,0.1019,0.1022,0.1033,0.1033,0.1035,0.1049,0.1046,0.105,0.1058,0.1059,0.1065,0.1069,0.1075,0.1072,0.1067,0.1069,0.1068,0.1074,0.1055,0.1053,0.1051,0.1044,0.1042,0.1073,0.1073,0.1073,0.1073,0,0.1006,0.1008,0.1005,0.1012,0.1014,0.1013,0.1023,0.1024,0.103,0.1037,0.1035,0.1042,0.1045,0.1045,0.1052,0.1042,0.1045,0.1053,0.1063,0.1047,0.1041,0.1038,0.1071,0.1072,0.1072,0.1072,0,0,0.0983,0.0995,0.0994,0.0996,0.1005,0.1005,0.1003,0.1007,0.1006,0.1011,0.1009,0.1011,0.1017,0.102,0.1027,0.1023,0.1008,0.1032,0.1032,0.1026,0.0995,0.0988,0.0985,0.1013,0.1013,0.1013,0.0993,0,0.0969,0.0967,0.0976,0.0971,0.0972,0.0983,0.0981,0.0985,0.0991,0.0991,0.0997,0.0997,0.1007,0.1008,0.1005,0.1011,0.1002,0.1012,0.101,0.101,0.1007,0.0982,0.0975,0.0957,0.0991,0.0991,0.0991,0,0.0954,0.0956,0.0951,0.0958,0.0958,0.0956,0.0959,0.0959,0.0964,0.0967,0.0969,0.0977,0.0974,0.0984,0.098,0.0987,0.0986,0.0988,0.0988,0.0988,0.0999,0.098,0.0952,0.0948,0.0987,0.0987,0.0988,0,0.0935,0.0938,0.0934,0.0936,0.0944,0.0942,0.0945,0.095,0.0951,0.0953,0.0953,0.0954,0.0955,0.0955,0.0963,0.097,0.0956,0.0968,0.0958,0.0958,0.0955,0.0955,0.0925,0.0956,0.0956,0.0956,0.0956,0,0.0918,0.0915,0.0926,0.0924,0.0919,0.0929,0.0923,0.0928,0.0931,0.0929,0.0939,0.0937,0.0947,0.0946,0.0952,0.0946,0.0946,0.0948,0.095,0.0947,0.0946,0.0946,0.0947,0.0955,0.0955,0.0956,0.0956,0,0.0897,0.0905,0.0902,0.0909,0.0911,0.0906,0.0912,0.091,0.0915,0.0912,0.0912,0.092,0.0918,0.0925,0.0925,0.0929,0.0919,0.0924,0.0918,0.0919,0.0908,0.0909,0.0877,0.0873,0.0907,0.0907,0.0907,0,0.0886,0.0883,0.0889,0.0888,0.0891,0.089,0.089,0.0899,0.0898,0.0901,0.0898,0.0897,0.0897,0.0893,0.0898,0.0897,0.0901,0.089,0.0901,0.0897,0.0899,0.0899,0.0898,0.0887,0.0887,0.0887,0.0886,0,0.0865,0.0868,0.0868,0.0868,0.0868,0.0869,0.0871,0.0869,0.0878,0.0877,0.0875,0.0874,0.0873,0.0872,0.0871,0.0874,0.0881,0.0883,0.088,0.0877,0.0873,0.0873,0.091,0.0883,0.0884,0.0884,0.0884,0.0884,0.0847,0.0844,0.0848,0.0846,0.0848,0.0849,0.0846,0.085,0.0849,0.0848,0.0853,0.085,0.0852,0.0852,0.0853,0.085,0.0855,0.0852,0.0851,0.085,0.0847,0.0874,0.085,0.085,0.085,0.085,0.085,0,0.0825,0.0828,0.0826,0.0827,0.0826,0.0832,0.0834,0.0832,0.0829,0.083,0.0829,0.0825,0.0823,0.0827,0.0825,0.0821,0.0824,0.082,0.082,0.082,0.0844,0.0845,0.0817,0.0817,0.0817,0.0817,0.0817,0.0817,0.0814,0.0808,0.0811,0.0806,0.0808,0.0805,0.0804,0.0804,0.0805,0.08,0.0798,0.0801,0.0802,0.08,0.0797,0.0799,0.0797,0.0791,0.0793,0.0815,0.0819,0.0822,0.0823,0.0791,0.0791,0.077,0.077,0.077]}]]